Flag Weather past 2 weeks in Cúcuta, Colombia

Now
59 °F

Drizzle. Fog.


Feels Like: 59 °F
Forecast: 72 / 96 °F
Wind: No wind

Location: Rionegro / J. M. Cordova

Current Time: Nov 24, 2014 at 4:37:50 AM

Latest Report: Nov 24, 2014 at 4:00 AM


Visibility: 2 mi

Pressure: 30.19 "Hg

Humidity: 100%

Dew point: 59 °F

Location of CúcutaLocation

Historic Weather in Cúcuta — Graph

°F

Cúcuta temperature yesterday

Maximum temperature yesterday: 72 °F (at 2:00 PM)
Minimum temperature yesterday: 59 °F (at 12:00 AM)
Average temperature yesterday: 63 °F

Past Weeks' High & Low Weather Summary

 TemperatureHumidityPressure
High82 °F (Nov 12, 3:00 PM)100% (Nov 9, 3:00 AM)30.38 "Hg (Nov 9, 3:00 AM)
Low52 °F (Nov 17, 1:00 AM)47% (Nov 15, 2:00 PM)29.78 "Hg (Nov 12, 3:00 PM)
Average61 °F85%30.27 "Hg
* Reported Nov 9 3:00 AM — Nov 24 3:00 AM, Cúcuta, Weather by CustomWeather, © 2014

Note: Actual official high and low records may vary slightly from our data, if they occured in-between our weather recording intervals... More about our weather records

Advertising

Cúcuta weather history for previous 24 hours

 ConditionsComfort  
Time TempWeatherWind HumidityBarometerVisibility
3:00 AM
Nov 24
61 °FFog.No wind94%30.19 "Hg3 mi
2:00 AM61 °FPassing clouds.No wind94%30.21 "Hg2 mi
1:00 AM61 °FFog.No wind94%30.24 "Hg2 mi
12:00 AM61 °FFog.No wind94%30.25 "Hg4 mi
11:00 PM
Nov 23
61 °FFog.5 mph94%30.26 "Hg4 mi
10:00 PM61 °FFog.No wind94%30.25 "Hg4 mi
9:00 PM61 °FFog.No wind94%30.25 "Hg5 mi
8:00 PM63 °FPassing clouds.5 mph88%30.22 "HgN/A
7:00 PM63 °FPassing clouds.5 mph83%30.19 "HgN/A
6:00 PM66 °FPassing clouds.9 mph68%30.17 "HgN/A
5:00 PM70 °FPassing clouds.12 mph57%30.15 "HgN/A
4:00 PM72 °FPassing clouds.10 mph50%30.14 "HgN/A
3:00 PM72 °FScattered clouds.12 mph53%30.16 "HgN/A
2:00 PM72 °FScattered clouds.13 mph53%30.18 "HgN/A
1:00 PM70 °FBroken clouds.12 mph60%30.22 "HgN/A
12:00 PM68 °FScattered clouds.12 mph60%30.26 "HgN/A
11:00 AM66 °FPartly sunny.5 mph68%30.29 "HgN/A
10:00 AM64 °FOvercast.5 mph73%30.31 "HgN/A
9:00 AM63 °FOvercast.5 mph77%30.31 "HgN/A
8:00 AM61 °FBroken clouds.2 mph83%30.29 "Hg5 mi
7:00 AM59 °FFog.No wind94%30.27 "Hg3 mi
6:00 AM59 °FFog.No wind94%30.28 "Hg4 mi
5:00 AM59 °FFog.No wind94%30.27 "Hg5 mi
4:00 AM59 °FFog.No wind94%30.25 "Hg5 mi
Weather by CustomWeather, © 2014

See weather overviewHow to use our weather pages